Location: Newark
(42.0700°N, 88.0492°W)
Time: 03:30:46
(UTC+00:00)

Envisat - Visible Passes

Search period start: 22 September 2019 00:00
Search period end: 02 October 2019 00:00
Orbit: 764 x 766 km, 98.1° (Epoch: 21 September)

Date Brightness Start Highest point End Pass type
(mag) Time Alt. Az. Time Alt. Az. Time Alt. Az.
22 Sep 6.0 01:29:46 10° WSW 01:32:18 14° W 01:34:52 10° WNW visible
23 Sep 5.1 00:50:45 10° SSW 00:55:11 30° W 00:59:40 10° NW visible
24 Sep 3.5 00:13:14 10° S 00:18:17 68° WSW 00:23:22 10° NNW visible
25 Sep 5.9 01:17:35 10° SW 01:20:55 18° W 01:24:17 10° NW visible
26 Sep 4.6 00:39:10 10° SSW 00:43:52 38° W 00:48:37 10° NNW visible
28 Sep 5.6 01:05:39 10° SW 01:09:34 22° W 01:13:29 10° NW visible
29 Sep 4.1 00:27:40 10° S 00:32:34 48° W 00:37:29 10° NNW visible
30 Sep 6.1 01:33:16 10° WSW 01:35:21 12° W 01:37:27 10° WNW visible
01 Oct 5.2 00:53:53 10° SSW 00:58:12 28° W 01:02:33 10° NW visible
